Orbital Elements at Epoch 2459000.5 (2020-May-31.0) TDB
Reference: JPL 20 (heliocentric ecliptic J2000)
Element | Value | Uncertainty (1-sigma) | Units |
e | .2199110973565866 | 1.1448e-07 | |
a | 3.001823402633889 | 3.6771e-08 | au |
q | 2.341689124089988 | 3.6514e-07 | au |
i | 17.73048352499082 | 8.0939e-06 | deg |
node | 16.27501011283887 | 1.5706e-05 | deg |
peri | 138.589764436863 | 2.6254e-05 | deg |
M | 297.7446127688843 | 1.3723e-05 | deg |
tp | 2459329.011497207225 (2021-Apr-24.51149721) | 7.2521e-05 | TDB |
period | 1899.661125800402 5.20 | 3.4905e-05 9.556e-08 | d yr |
n | .1895074837878349 | 3.482e-09 | deg/d |
Q | 3.66195768117779 | 4.4857e-08 | au |
|
| | Orbit Determination Parameters
Additional Information
|